This is the latest recevied weather packets stored in our database for station/object IZ4MEH-10. If no packets are shown the sender has not sent any weather packets the latest 10 day(s).
| Time | Temp. | Humidity | Pressure | Rain* | Wind** | Luminosity | Snow |
|---|---|---|---|---|---|---|---|
| 1788580479 | 26.67° C | 42% | 1013.3 hPa | - | - | - | - |
| 1788578678 | 26.67° C | 41% | 1013.2 hPa | - | - | - | - |
| 1788576878 | 26.67° C | 42% | 1013.4 hPa | - | - | - | - |
| 1788575077 | 27.22° C | 40% | 1013.3 hPa | - | - | - | - |
| 1788573276 | 27.22° C | 41% | 1013.3 hPa | - | - | - | - |
| 1788569674 | 28.33° C | 40% | 1013.3 hPa | - | - | - | - |
| 1788567874 | 28.33° C | 40% | 1013.4 hPa | - | - | - | - |
| 1788566073 | 28.89° C | 38% | 1013.5 hPa | - | - | - | - |
| 1788564272 | 28.89° C | 38% | 1013.6 hPa | - | - | - | - |
| 1788562471 | 28.89° C | 38% | 1013.7 hPa | - | - | - | - |
| 1788560670 | 29.44° C | 37% | 1013.7 hPa | - | - | - | - |
| 1788558869 | 30° C | 35% | 1013.8 hPa | - | - | - | - |
| 1788557068 | 30.56° C | 37% | 1013.7 hPa | - | - | - | - |
| 1788555268 | 30° C | 41% | 1013.9 hPa | - | - | - | - |
| 1788553467 | 30° C | 42% | 1014 hPa | - | - | - | - |
| 1788551666 | 30.56° C | 41% | 1014 hPa | - | - | - | - |
| 1788549865 | 31.11° C | 40% | 1014 hPa | - | - | - | - |
| 1788548065 | 31.67° C | 37% | 1013.7 hPa | - | - | - | - |
| 1788546263 | 32.78° C | 35% | 1013.6 hPa | - | - | - | - |
| 1788544455 | 34.44° C | 32% | 1013.2 hPa | - | - | - | - |
| 1788542662 | 36.11° C | 31% | 1013.1 hPa | - | - | - | - |
| 1788540853 | 36.67° C | 29% | 1012.9 hPa | - | - | - | - |
| 1788539052 | 37.22° C | 29% | 1013 hPa | - | - | - | - |
| 1788537251 | 37.22° C | 29% | 1013.2 hPa | - | - | - | - |
| 1788535458 | 37.22° C | 28% | 1013.4 hPa | - | - | - | - |
* Rain since midnight (hover to see other rain measurements)
** Current wind speed in m/s (hover to see current wind gust speed)